| time (UTC) | temp F | wind direction | speed MPH | gust MPH | rain 1hr in | rain 24hr in | rain mn in | humidity % | barometer mb |
| 20260504204349 | 75 | 27 | 7.0 | 10.0 | 0.00 | 0.00 | 0.00 | 35 | 1003.3 |
| 20260504203848 | 75 | 60 | 5.0 | 6.0 | 0.00 | 0.00 | 0.00 | 34 | 1003.6 |
| 20260504203344 | 75 | 302 | 7.0 | 9.0 | 0.00 | 0.00 | 0.00 | 33 | 1003.7 |
| 20260504202840 | 75 | 21 | 10.0 | 13.0 | 0.00 | 0.00 | 0.00 | 34 | 1003.5 |
| 20260504202337 | 74 | 313 | 5.0 | 8.0 | 0.00 | 0.00 | 0.00 | 36 | 1003.7 |
| 20260504201834 | 74 | 3 | 10.0 | 15.0 | 0.00 | 0.00 | 0.00 | 35 | 1003.8 |
| 20260504201331 | 74 | 72 | 4.0 | 7.0 | 0.00 | 0.00 | 0.00 | 35 | 1003.8 |
| 20260504200829 | 74 | 18 | 7.0 | 9.0 | 0.00 | 0.00 | 0.00 | 34 | 1003.8 |
| 20260504200325 | 75 | 30 | 14.0 | 17.0 | 0.00 | 0.00 | 0.00 | 33 | 1003.7 |
| 20260504195821 | 74 | 93 | 4.0 | 7.0 | 0.00 | 0.00 | 0.00 | 34 | 1003.8 |
| 20260504195317 | 74 | 19 | 11.0 | 17.0 | 0.00 | 0.00 | 0.00 | 34 | 1004.2 |
| 20260504194814 | 75 | 81 | 4.0 | 5.0 | 0.00 | 0.00 | 0.00 | 34 | 1003.7 |
| 20260504194310 | 74 | 358 | 6.0 | 9.0 | 0.00 | 0.00 | 0.00 | 35 | 1003.6 |
| 20260504193806 | 74 | 28 | 3.0 | 3.0 | 0.00 | 0.00 | 0.00 | 35 | 1003.7 |
| 20260504193304 | 75 | 70 | 7.0 | 9.0 | 0.00 | 0.00 | 0.00 | 34 | 1003.5 |
| 20260504192803 | 76 | 15 | 5.0 | 7.0 | 0.00 | 0.00 | 0.00 | 33 | 1003.5 |
| 20260504192300 | 76 | 23 | 10.0 | 13.0 | 0.00 | 0.00 | 0.00 | 31 | 1003.1 |
| 20260504191759 | 76 | 69 | 5.0 | 8.0 | 0.00 | 0.00 | 0.00 | 33 | 1003.2 |
| 20260504191255 | 77 | 42 | 10.0 | 17.0 | 0.00 | 0.00 | 0.00 | 32 | 1003.2 |
| 20260504190751 | 77 | 13 | 4.0 | 5.0 | 0.00 | 0.00 | 0.00 | 31 | 1003.0 |
| 20260504190247 | 77 | 351 | 8.0 | 10.0 | 0.00 | 0.00 | 0.00 | 31 | 1003.0 |
| 20260504185744 | 78 | 322 | 7.0 | 10.0 | 0.00 | 0.00 | 0.00 | 32 | 1003.2 |
| 20260504185241 | 78 | 19 | 7.0 | 11.0 | 0.00 | 0.00 | 0.00 | 29 | 1003.3 |
| 20260504184737 | 79 | 227 | 7.0 | 9.0 | 0.00 | 0.00 | 0.00 | 24 | 1003.3 |
| 20260504184233 | 79 | 351 | 6.0 | 7.0 | 0.00 | 0.00 | 0.00 | 23 | 1003.0 |
| 20260504183729 | 80 | 10 | 3.0 | 3.0 | 0.00 | 0.00 | 0.00 | 24 | 1003.0 |
| 20260504183226 | 80 | 336 | 7.0 | 9.0 | 0.00 | 0.00 | 0.00 | 23 | 1003.0 |
| 20260504182724 | 80 | 352 | 5.0 | 8.0 | 0.00 | 0.00 | 0.00 | 23 | 1002.9 |
| 20260504182221 | 80 | 15 | 5.0 | 6.0 | 0.00 | 0.00 | 0.00 | 23 | 1003.3 |
| 20260504181719 | 79 | 17 | 5.0 | 6.0 | 0.00 | 0.00 | 0.00 | 23 | 1003.0 |
| 20260504181216 | 79 | 275 | 3.0 | 5.0 | 0.00 | 0.00 | 0.00 | 25 | 1003.0 |
| 20260504180715 | 80 | 302 | 3.0 | 7.0 | 0.00 | 0.00 | 0.00 | 24 | 1003.2 |
| 20260504180213 | 79 | 11 | 3.0 | 6.0 | 0.00 | 0.00 | 0.00 | 22 | 1003.1 |
| 20260504175710 | 79 | 11 | 5.0 | 7.0 | 0.00 | 0.00 | 0.00 | 22 | 1003.0 |
| 20260504175207 | 78 | 71 | 8.0 | 10.0 | 0.00 | 0.00 | 0.00 | 22 | 1002.9 |
| 20260504174705 | 79 | 46 | 3.0 | 5.0 | 0.00 | 0.00 | 0.00 | 23 | 1003.3 |
| 20260504174203 | 79 | 228 | 5.0 | 8.0 | 0.00 | 0.00 | 0.00 | 24 | 1003.2 |
| 20260504173659 | 79 | 73 | 2.0 | 3.0 | 0.00 | 0.00 | 0.00 | 24 | 1003.3 |
| 20260504173156 | 78 | 27 | 5.0 | 7.0 | 0.00 | 0.00 | 0.00 | 22 | 1003.6 |
| 20260504172652 | 78 | 321 | 3.0 | 6.0 | 0.00 | 0.00 | 0.00 | 23 | 1003.3 |
| 20260504172149 | 78 | 0 | 6.0 | 6.0 | 0.00 | 0.00 | 0.00 | 20 | 1003.7 |
| 20260504171645 | 78 | 218 | 3.0 | 3.0 | 0.00 | 0.00 | 0.00 | 24 | 1003.5 |
| 20260504171143 | 77 | 67 | 5.0 | 7.0 | 0.00 | 0.00 | 0.00 | 24 | 1003.8 |
| 20260504170639 | 78 | 348 | 6.0 | 9.0 | 0.00 | 0.00 | 0.00 | 22 | 1003.7 |
| 20260504170137 | 77 | 54 | 2.0 | 2.0 | 0.00 | 0.00 | 0.00 | 23 | 1003.8 |
| 20260504151022 | 71 | 324 | 5.0 | 7.0 | 0.00 | 0.00 | 0.00 | 34 | 1003.7 |
| 20260504150519 | 71 | 223 | 4.0 | 5.0 | 0.00 | 0.00 | 0.00 | 36 | 1003.9 |
| 20260504140950 | 65 | 171 | 2.0 | 3.0 | 0.00 | 0.00 | 0.00 | 43 | 1004.6 |
| 20260504140447 | 64 | 87 | 1.0 | 1.0 | 0.00 | 0.00 | 0.00 | 46 | 1004.2 |
| 20260504130411 | 52 | 0 | 3.0 | 5.0 | 0.00 | 0.00 | 0.00 | 58 | 1004.4 |
| 20260504110259 | 45 | 16 | 1.0 | 1.0 | 0.00 | 0.00 | 0.00 | 68 | 1003.6 |
| 20260504100217 | 50 | 214 | 1.0 | 1.0 | 0.00 | 0.00 | 0.00 | 61 | 1003.8 |
| 20260504090140 | 51 | 186 | 1.0 | 1.0 | 0.00 | 0.00 | 0.00 | 58 | 1003.7 |
| 20260504081610 | 51 | 136 | 2.0 | 3.0 | 0.00 | 0.00 | 0.00 | 57 | 1003.8 |
| 20260504081106 | 52 | 150 | 1.0 | 1.0 | 0.00 | 0.00 | 0.00 | 56 | 1004.1 |
| 20260504080603 | 52 | 158 | 1.0 | 2.0 | 0.00 | 0.00 | 0.00 | 55 | 1003.9 |
| 20260504050410 | 55 | 138 | 1.0 | 1.0 | 0.00 | 0.00 | 0.00 | 52 | 1006.7 |
| 20260504045907 | 55 | 145 | 1.0 | 1.0 | 0.00 | 0.00 | 0.00 | 52 | 1007.0 |
| 20260504045402 | 55 | 175 | 0.0 | 0.0 | 0.00 | 0.00 | 0.00 | 52 | 1007.0 |
| 20260504044859 | 55 | 141 | 0.0 | 1.0 | 0.00 | 0.00 | 0.00 | 52 | 1007.0 |
| 20260504044356 | 55 | 144 | 0.0 | 0.0 | 0.00 | 0.00 | 0.00 | 52 | 1007.3 |
| 20260504043854 | 55 | 140 | 0.0 | 0.0 | 0.00 | 0.00 | 0.00 | 52 | 1007.1 |
| 20260504043350 | 55 | 139 | 0.0 | 1.0 | 0.00 | 0.00 | 0.00 | 51 | 1007.3 |
| 20260504042848 | 55 | 148 | 1.0 | 1.0 | 0.00 | 0.00 | 0.00 | 52 | 1007.2 |
| 20260504042344 | 55 | 154 | 0.0 | 0.0 | 0.00 | 0.00 | 0.00 | 51 | 1007.3 |
| 20260504041840 | 56 | 108 | 0.0 | 0.0 | 0.00 | 0.00 | 0.00 | 51 | 1007.6 |
| 20260504041337 | 56 | 129 | 1.0 | 1.0 | 0.00 | 0.00 | 0.00 | 51 | 1007.3 |
| 20260504040833 | 56 | 171 | 1.0 | 1.0 | 0.00 | 0.00 | 0.00 | 51 | 1007.4 |
| 20260504040331 | 56 | 140 | 1.0 | 1.0 | 0.00 | 0.00 | 0.00 | 51 | 1007.2 |
| 20260504035826 | 56 | 175 | 1.0 | 1.0 | 0.00 | 0.00 | 0.00 | 50 | 1007.2 |
| 20260504035324 | 57 | 164 | 1.0 | 1.0 | 0.00 | 0.00 | 0.00 | 50 | 1006.9 |
| 20260504034821 | 57 | 122 | 1.0 | 2.0 | 0.00 | 0.00 | 0.00 | 48 | 1006.9 |
| 20260504034319 | 57 | 180 | 1.0 | 2.0 | 0.00 | 0.00 | 0.00 | 48 | 1007.2 |
| 20260504033815 | 57 | 157 | 1.0 | 2.0 | 0.00 | 0.00 | 0.00 | 48 | 1007.5 |
| 20260504033314 | 58 | 196 | 1.0 | 1.0 | 0.00 | 0.00 | 0.00 | 47 | 1007.4 |
| 20260504032809 | 58 | 153 | 0.0 | 1.0 | 0.00 | 0.00 | 0.00 | 47 | 1007.3 |
| 20260504032307 | 58 | 146 | 1.0 | 1.0 | 0.00 | 0.00 | 0.00 | 47 | 1007.0 |
| 20260504031804 | 58 | 133 | 1.0 | 1.0 | 0.00 | 0.00 | 0.00 | 47 | 1007.1 |
| 20260504031301 | 58 | 121 | 1.0 | 1.0 | 0.00 | 0.00 | 0.00 | 48 | 1007.5 |
| 20260504030757 | 58 | 104 | 0.0 | 0.0 | 0.00 | 0.00 | 0.00 | 48 | 1007.6 |
| 20260504030254 | 59 | 103 | 0.0 | 0.0 | 0.00 | 0.00 | 0.00 | 47 | 1007.4 |
| 20260504025750 | 59 | 78 | 1.0 | 1.0 | 0.00 | 0.00 | 0.00 | 47 | 1007.6 |
| 20260504025248 | 59 | 90 | 0.0 | 1.0 | 0.00 | 0.00 | 0.00 | 46 | 1007.6 |
| 20260504024744 | 60 | 107 | 1.0 | 2.0 | 0.00 | 0.00 | 0.00 | 45 | 1007.6 |
| 20260504024241 | 60 | 76 | 1.0 | 1.0 | 0.00 | 0.00 | 0.00 | 44 | 1007.5 |
| 20260504023738 | 60 | 78 | 0.0 | 1.0 | 0.00 | 0.00 | 0.00 | 44 | 1007.3 |
| 20260504023234 | 60 | 88 | 1.0 | 1.0 | 0.00 | 0.00 | 0.00 | 43 | 1007.4 |
| 20260504022730 | 61 | 92 | 0.0 | 0.0 | 0.00 | 0.00 | 0.00 | 43 | 1007.5 |
| 20260504022226 | 62 | 69 | 1.0 | 2.0 | 0.00 | 0.00 | 0.00 | 42 | 1007.4 |
| 20260504021724 | 62 | 85 | 0.0 | 1.0 | 0.00 | 0.00 | 0.00 | 41 | 1007.4 |
| 20260504021221 | 63 | 87 | 0.0 | 1.0 | 0.00 | 0.00 | 0.00 | 40 | 1007.6 |
| 20260504020717 | 63 | 120 | 2.0 | 2.0 | 0.00 | 0.00 | 0.00 | 39 | 1007.6 |
| 20260504020213 | 64 | 92 | 1.0 | 2.0 | 0.00 | 0.00 | 0.00 | 39 | 1007.6 |
| 20260504015705 | 64 | 82 | 2.0 | 3.0 | 0.00 | 0.00 | 0.00 | 38 | 1007.5 |
| 20260504015201 | 64 | 122 | 2.0 | 2.0 | 0.00 | 0.00 | 0.00 | 38 | 1007.6 |
| 20260504014656 | 65 | 69 | 4.0 | 5.0 | 0.00 | 0.00 | 0.00 | 37 | 1007.6 |
| 20260504014154 | 65 | 92 | 1.0 | 2.0 | 0.00 | 0.00 | 0.00 | 37 | 1007.7 |
| 20260504013652 | 66 | 92 | 3.0 | 3.0 | 0.00 | 0.00 | 0.00 | 37 | 1007.4 |
| 20260504013148 | 66 | 76 | 0.0 | 1.0 | 0.00 | 0.00 | 0.00 | 37 | 1007.5 |
| 20260504012645 | 67 | 97 | 1.0 | 1.0 | 0.00 | 0.00 | 0.00 | 36 | 1007.5 |
| 20260504012143 | 67 | 98 | 2.0 | 2.0 | 0.00 | 0.00 | 0.00 | 35 | 1007.4 |
| 20260504011640 | 68 | 135 | 1.0 | 2.0 | 0.00 | 0.00 | 0.00 | 35 | 1007.3 |
| 20260504011136 | 68 | 91 | 3.0 | 3.0 | 0.00 | 0.00 | 0.00 | 34 | 1007.3 |
| 20260504010632 | 68 | 94 | 1.0 | 1.0 | 0.00 | 0.00 | 0.00 | 35 | 1007.1 |
| 20260504010128 | 69 | 72 | 1.0 | 2.0 | 0.00 | 0.00 | 0.00 | 34 | 1007.3 |
| 20260504005625 | 69 | 105 | 1.0 | 2.0 | 0.00 | 0.00 | 0.00 | 33 | 1007.6 |
| 20260504005122 | 69 | 61 | 2.0 | 2.0 | 0.00 | 0.00 | 0.00 | 33 | 1007.5 |
| 20260504004620 | 70 | 38 | 3.0 | 3.0 | 0.00 | 0.00 | 0.00 | 32 | 1007.4 |
| 20260504004117 | 71 | 60 | 1.0 | 2.0 | 0.00 | 0.00 | 0.00 | 32 | 1007.7 |
| 20260504003613 | 71 | 51 | 4.0 | 6.0 | 0.00 | 0.00 | 0.00 | 31 | 1007.7 |
| 20260504003110 | 71 | 114 | 3.0 | 5.0 | 0.00 | 0.00 | 0.00 | 31 | 1008.0 |
| 20260504002607 | 71 | 91 | 3.0 | 3.0 | 0.00 | 0.00 | 0.00 | 31 | 1007.9 |
| 20260504002104 | 71 | 99 | 3.0 | 3.0 | 0.00 | 0.00 | 0.00 | 30 | 1007.9 |
| 20260504001602 | 71 | 70 | 2.0 | 2.0 | 0.00 | 0.00 | 0.00 | 31 | 1007.7 |
| 20260504001057 | 72 | 41 | 1.0 | 2.0 | 0.00 | 0.00 | 0.00 | 31 | 1008.1 |
| 20260504000555 | 72 | 46 | 3.0 | 3.0 | 0.00 | 0.00 | 0.00 | 30 | 1008.0 |
| 20260504000053 | 73 | 85 | 0.0 | 1.0 | 0.00 | 0.00 | 0.00 | 31 | 1007.9 |
| 20260503235551 | 72 | 121 | 0.0 | 0.0 | 0.00 | 0.00 | 0.00 | 31 | 1007.9 |
| 20260503235047 | 73 | 75 | 1.0 | 3.0 | 0.00 | 0.00 | 0.00 | 31 | 1008.3 |
| 20260503234545 | 73 | 76 | 3.0 | 3.0 | 0.00 | 0.00 | 0.00 | 28 | 1008.4 |
| 20260503234043 | 73 | 50 | 2.0 | 3.0 | 0.00 | 0.00 | 0.00 | 29 | 1008.3 |
| 20260503233539 | 74 | 46 | 2.0 | 2.0 | 0.00 | 0.00 | 0.00 | 29 | 1008.3 |
| 20260503233035 | 74 | 93 | 1.0 | 1.0 | 0.00 | 0.00 | 0.00 | 29 | 1008.2 |
| 20260503232532 | 74 | 133 | 3.0 | 3.0 | 0.00 | 0.00 | 0.00 | 28 | 1008.3 |
| 20260503232030 | 74 | 53 | 2.0 | 3.0 | 0.00 | 0.00 | 0.00 | 30 | 1008.6 |
| 20260503231528 | 74 | 61 | 3.0 | 3.0 | 0.00 | 0.00 | 0.00 | 28 | 1008.3 |
| 20260503231024 | 74 | 58 | 3.0 | 3.0 | 0.00 | 0.00 | 0.00 | 28 | 1008.6 |
| 20260503230521 | 74 | 77 | 1.0 | 1.0 | 0.00 | 0.00 | 0.00 | 28 | 1008.2 |
| 20260503230018 | 75 | 49 | 2.0 | 3.0 | 0.00 | 0.00 | 0.00 | 27 | 1008.5 |
| 20260503225514 | 75 | 125 | 5.0 | 7.0 | 0.00 | 0.00 | 0.00 | 27 | 1008.5 |
| 20260503225009 | 75 | 123 | 4.0 | 5.0 | 0.00 | 0.00 | 0.00 | 27 | 1008.5 |
| 20260503224507 | 75 | 21 | 4.0 | 5.0 | 0.00 | 0.00 | 0.00 | 26 | 1008.4 |
| 20260503224000 | 76 | 111 | 3.0 | 5.0 | 0.00 | 0.00 | 0.00 | 27 | 1008.4 |
| 20260503223457 | 76 | 183 | 0.0 | 1.0 | 0.00 | 0.00 | 0.00 | 26 | 1008.5 |
| 20260503222952 | 76 | 52 | 3.0 | 3.0 | 0.00 | 0.00 | 0.00 | 27 | 1008.6 |
| 20260503222451 | 76 | 152 | 0.0 | 0.0 | 0.00 | 0.00 | 0.00 | 29 | 1008.6 |
| 20260503221949 | 77 | 124 | 1.0 | 1.0 | 0.00 | 0.00 | 0.00 | 28 | 1008.6 |
| 20260503221447 | 78 | 125 | 3.0 | 3.0 | 0.00 | 0.00 | 0.00 | 25 | 1008.6 |
| 20260503220944 | 77 | 117 | 0.0 | 0.0 | 0.00 | 0.00 | 0.00 | 29 | 1008.8 |
| 20260503220440 | 76 | 352 | 4.0 | 5.0 | 0.00 | 0.00 | 0.00 | 26 | 1008.7 |
| 20260503215937 | 78 | 336 | 2.0 | 5.0 | 0.00 | 0.00 | 0.00 | 26 | 1009.0 |
| 20260503215434 | 78 | 190 | 1.0 | 1.0 | 0.00 | 0.00 | 0.00 | 27 | 1008.9 |
| 20260503214932 | 79 | 175 | 1.0 | 1.0 | 0.00 | 0.00 | 0.00 | 30 | 1009.0 |
| 20260503214429 | 78 | 68 | 1.0 | 1.0 | 0.00 | 0.00 | 0.00 | 27 | 1009.1 |
| 20260503213926 | 79 | 188 | 2.0 | 3.0 | 0.00 | 0.00 | 0.00 | 26 | 1009.3 |
| 20260503213425 | 78 | 91 | 0.0 | 0.0 | 0.00 | 0.00 | 0.00 | 29 | 1009.4 |
| 20260503212920 | 78 | 76 | 2.0 | 2.0 | 0.00 | 0.00 | 0.00 | 26 | 1009.6 |
| 20260503212418 | 78 | 74 | 0.0 | 1.0 | 0.00 | 0.00 | 0.00 | 27 | 1009.6 |
| 20260503211915 | 77 | 17 | 2.0 | 2.0 | 0.00 | 0.00 | 0.00 | 28 | 1009.6 |
| 20260503211412 | 78 | 114 | 2.0 | 2.0 | 0.00 | 0.00 | 0.00 | 26 | 1009.6 |
| 20260503210906 | 78 | 115 | 2.0 | 2.0 | 0.00 | 0.00 | 0.00 | 26 | 1009.8 |
| 20260503210404 | 78 | 133 | 0.0 | 1.0 | 0.00 | 0.00 | 0.00 | 29 | 1009.7 |
| 20260503205859 | 78 | 242 | 2.0 | 2.0 | 0.00 | 0.00 | 0.00 | 25 | 1009.6 |
| 20260503205356 | 77 | 77 | 2.0 | 2.0 | 0.00 | 0.00 | 0.00 | 26 | 1010.0 |
| 20260503204853 | 77 | 149 | 1.0 | 1.0 | 0.00 | 0.00 | 0.00 | 29 | 1010.1 |